[[{"header":{"parameterUnit":"m.s-1","parameterCategory":1,"la1":30.2991,"la2":30.254,"lo1":-89.0895,"lo2":-89.0444,"dy":0.0017,"dx":0.0017,"nx":28,"ny":28,"refTime":"2023-09-02T21:00:00:Z","depth":0,"parameterNumber":2,"parameterNumberName":"U-component_of_WINDS"},"data":[0,0,0,0,0,0,0,0,0,0,0,0,0,0,0,0,0,0,0,0,0,0,0,0,0,0,0,0,0,0,0,0,0,0,0,0,0,0,0,0,0,0,0,0,0,0,0,0,0,0,0,0,0,0,0,0,0,0,-4.1226,-4.1227,0,-4.1301,-4.1301,-4.1302,-4.13,-4.1299,-4.1298,-4.1297,-4.1369,-4.1372,-4.1375,0,0,0,0,0,0,0,0,0,0,0,0,0,-4.1079,-4.1082,-4.1226,-4.1227,-4.1228,-4.13,-4.1301,-4.1302,-4.13,-4.1299,-4.1297,-4.1296,-4.1368,-4.1371,-4.1375,0,0,0,0,0,0,0,0,0,0,0,0,0,-4.1147,-4.1083,-4.1226,-4.1236,-4.1237,-4.13,-4.1301,-4.1303,-4.13,-4.1299,-4.1297,-4.1296,-4.1367,-4.1371,-4.1375,-4.1433,0,0,-4.1389,-4.139,0,0,0,0,0,0,0,0,-4.1143,-4.1153,-4.1233,-4.1235,-4.1237,-4.1289,-4.1276,-4.1346,-4.13,-4.1276,-4.1297,-4.1295,-4.1344,-4.135,-4.1367,-4.1436,-4.1439,-4.1389,-4.1392,-4.1393,-4.1395,0,0,0,0,0,0,0,-4.1139,-4.1149,-4.1256,-4.1235,-4.1237,-4.1235,-4.1243,-4.1289,-4.1317,-4.1278,-4.1278,-4.1287,-4.1344,-4.1363,-4.1368,-4.144,-4.1389,-4.1393,-4.1395,-4.1397,-4.156,-4.1561,0,0,0,0,0,0,-4.1132,-4.1145,-4.1253,-4.1258,-4.1186,-4.1239,-4.1248,-4.1274,-4.1317,-4.1322,-4.1288,-4.1287,-4.1356,-4.1363,-4.1371,-4.144,-4.1393,-4.1397,-4.14,-4.1558,-4.156,-4.1562,0,0,0,0,0,0,-4.1129,-4.1142,-4.125,-4.1202,-4.1215,-4.1243,-4.1273,-4.1276,-4.1295,-4.1325,-4.1329,-4.1302,-4.1355,-4.1365,-4.1417,-4.1443,-4.1399,-4.1403,-4.1556,-4.1559,-4.1561,-4.1579,0,0,0,0,0,0,-4.1125,-4.1141,-4.1164,-4.1202,-4.1218,-4.1296,-4.1274,-4.1279,-4.1303,-4.1301,-4.1339,-4.1344,-4.1355,-4.1411,-4.1422,-4.1448,-4.1407,-4.1554,-4.1557,-4.156,-4.1577,-4.1582,-4.1587,0,0,0,0,0,-4.112,-4.1165,-4.1165,-4.1178,-4.1247,-4.1298,-4.1307,-4.1319,-4.1305,-4.1327,-4.1347,-4.1342,-4.1439,-4.1416,-4.1428,-4.1456,-4.1552,-4.1556,-4.156,-4.1574,-4.1581,-4.1587,0,0,0,0,0,0,-4.1127,-4.117,-4.117,-4.123,-4.126,-4.1297,-4.1326,-4.1326,-4.1361,-4.1358,-4.1371,-4.138,-4.1432,-4.145,-4.1424,-4.1514,-4.1493,-4.15,-4.15,-4.1507,-4.1512,-4.1506,-4.141,0,0,0,0,0,-4.1136,-4.1175,-4.121,-4.1259,-4.1275,-4.1298,-4.132,-4.1328,-4.1359,-4.1372,-4.1395,-4.1425,-4.1462,-4.1485,-4.1521,-4.158,-4.1587,-4.1605,-4.161,-4.1614,-4.1619,-4.1651,-4.1658,-4.1575,-4.1575,-4.1575,0,0,-4.1154,-4.1183,-4.1206,-4.1261,-4.1286,-4.1324,-4.1308,-4.135,-4.1378,-4.1378,-4.1429,-4.1447,-4.1481,-4.1537,-4.1562,-4.1553,-4.1644,-4.1619,-4.1622,-4.1625,-4.1655,-4.1663,-4.167,-4.1577,-4.1577,-4.1576,0,0,-4.1206,-4.1233,-4.1276,-4.1301,-4.1339,-4.1354,-4.1365,-4.1402,-4.1414,-4.1466,-4.1467,-4.15,-4.1564,-4.1588,-4.1609,-4.1671,-4.1668,-4.1683,-4.1709,-4.174,-4.1747,-4.1752,-4.1774,-4.1781,-4.1688,-4.1688,-4.1688,0,-4.1224,-4.1283,-4.1298,-4.134,-4.1364,-4.1367,-4.141,-4.1433,-4.148,-4.1496,-4.1486,-4.1566,-4.1589,-4.165,-4.1665,-4.1682,-4.1694,-4.1677,-4.1745,-4.1751,-4.1756,-4.1777,-4.1785,-4.1689,-4.1689,-4.1689,-4.1689,0,-4.1302,-4.1343,-4.1373,-4.142,-4.1447,-4.149,-4.151,-4.1536,-4.1542,-4.1558,-4.161,-4.1639,-4.168,-4.1695,-4.17,-4.1757,-4.175,-4.1742,-4.1721,-4.1765,-4.1785,-4.1793,-4.1691,-4.1691,-4.169,-4.169,0,0,-4.1359,-4.1415,-4.1425,-4.1446,-4.1489,-4.152,-4.1563,-4.1604,-4.1626,-4.1659,-4.1693,-4.1748,-4.1741,-4.1764,-4.1772,-4.18,-4.1846,-4.1788,-4.1789,-4.1797,-4.1909,-4.1914,-4.1923,-4.1845,-4.1847,-4.1848,-4.1906,0,-4.1415,-4.1491,-4.1506,-4.1572,-4.161,-4.1613,-4.165,-4.168,-4.1696,-4.173,-4.1748,-4.1786,-4.1774,-4.1788,-4.1815,-4.1835,-4.1869,-4.1831,-4.1877,-4.1878,-4.1866,-4.1933,-4.1938,-4.1991,-4.1914,-4.1915,-4.1916,0,-4.149,-4.1526,-4.1595,-4.1633,-4.1649,-4.1682,-4.1721,-4.1754,-4.1787,-4.1797,-4.1824,-4.1829,-4.1873,-4.1852,-4.1911,-4.1885,-4.1905,-4.1917,-4.1919,-4.1923,-4.1898,-4.1936,-4.2008,-4.2015,-4.1928,-4.1927,-4.1926,0,-4.1523,-4.1589,-4.1639,-4.1657,-4.1702,-4.1725,-4.1745,-4.1777,-4.1801,-4.1835,-4.1851,-4.1889,-4.191,-4.1939,-4.1954,-4.1938,-4.2012,-4.1993,-4.2021,-4.202,-4.2034,-4.2033,-4.2109,-4.205,-4.205,-4.205,-4.2049,0,-4.1583,-4.1625,-4.1655,-4.1685,-4.1733,-4.1749,-4.1795,-4.1814,-4.1843,-4.1877,-4.1883,-4.1914,-4.1933,-4.1967,-4.1979,-4.2025,-4.2035,-4.2043,-4.2046,-4.2042,-4.2041,-4.2054,-4.205,-4.2052,-4.2051,-4.2051,-4.205,0,-4.1628,-4.165,-4.1704,-4.1743,-4.1754,-4.1787,-4.1819,-4.1849,-4.1866,-4.1908,-4.1919,-4.1946,-4.1986,-4.2005,-4.2054,-4.2062,-4.2115,-4.2115,-4.2104,-4.2104,-4.2131,-4.2127,-4.2216,-4.2228,-4.2163,-4.2163,-4.2164,0,-4.1664,-4.1697,-4.1739,-4.1763,-4.1784,-4.1821,-4.1846,-4.1864,-4.189,-4.193,-4.1955,-4.1995,-4.2029,-4.2092,-4.2115,-4.2153,-4.2154,-4.2182,-4.2159,-4.2154,-4.2153,-4.215,-4.2153,-4.2186,-4.2186,-4.2187,-4.2187,0,-4.1725,-4.1735,-4.1771,-4.1811,-4.1841,-4.1873,-4.1904,-4.1923,-4.1946,-4.1974,-4.2016,-4.2042,-4.2093,-4.2133,-4.2172,-4.2191,-4.2193,-4.2195,-4.2203,-4.2199,-4.219,-4.2194,-4.2113,-4.2192,-4.2192,-4.2191,-4.2191,-4.2191,-4.1766,-4.1795,-4.183,-4.187,-4.1896,-4.1925,-4.1955,-4.1976,-4.2011,-4.2055,-4.2063,-4.2107,-4.214,-4.2193,-4.2214,-4.2248,-4.2241,-4.2253,-4.2256,-4.2258,-4.2259,-4.2186,-4.2255,-4.2255,-4.2255,-4.2255,-4.2255,0,-4.1827,-4.185,-4.1886,-4.1931,-4.1962,-4.1963,-4.1997,-4.2023,-4.2062,-4.2093,-4.2126,-4.2174,-4.2213,-4.2239,-4.2278,-4.23,-4.2302,-4.231,-4.2308,-4.2312,-4.2264,-4.2252,-4.2308,-4.2308,-4.2308,-4.2308,-4.2308,-4.2308,-4.1862,-4.1911,-4.1924,-4.1986,-4.2008,-4.2052,-4.2072,-4.2099,-4.2123,-4.2177,-4.2209,-4.2227,-4.2256,-4.2297,-4.2333,-4.2339,-4.2353,-4.2361,-4.2367,-4.2321,-4.2315,-4.231,-4.2299,-4.2364,-4.2364,-4.2412,-4.2413,-4.2413]},{"header":{"parameterUnit":"m.s-1","parameterCategory":1,"la1":30.2991,"la2":30.254,"lo1":-89.0895,"lo2":-89.0444,"dy":0.0017,"dx":0.0017,"nx":28,"ny":28,"refTime":"2023-09-02T21:00:00:Z","depth":0,"parameterNumber":3,"parameterNumberName":"V-component_of_WINDS"},"data":[0,0,0,0,0,0,0,0,0,0,0,0,0,0,0,0,0,0,0,0,0,0,0,0,0,0,0,0,0,0,0,0,0,0,0,0,0,0,0,0,0,0,0,0,0,0,0,0,0,0,0,0,0,0,0,0,0,0,5.422,5.4221,0,5.4269,5.4269,5.427,5.4269,5.4268,5.4267,5.4267,5.4312,5.4313,5.4315,0,0,0,0,0,0,0,0,0,0,0,0,0,5.4122,5.4124,5.422,5.4221,5.4221,5.4269,5.4269,5.427,5.4269,5.4268,5.4267,5.4266,5.4311,5.4313,5.4315,0,0,0,0,0,0,0,0,0,0,0,0,0,5.4167,5.4124,5.422,5.4227,5.4228,5.4268,5.4269,5.427,5.4269,5.4268,5.4267,5.4266,5.431,5.4313,5.4316,5.4352,0,0,5.4324,5.4325,0,0,0,0,0,0,0,0,5.4164,5.417,5.4225,5.4226,5.4228,5.4262,5.4251,5.4297,5.4269,5.4253,5.4267,5.4265,5.4296,5.4299,5.4311,5.4354,5.4356,5.4324,5.4326,5.4327,5.4328,0,0,0,0,0,0,0,5.4161,5.4168,5.4239,5.4226,5.4227,5.4225,5.4231,5.426,5.4279,5.4254,5.4254,5.426,5.4296,5.4308,5.4312,5.4357,5.4324,5.4327,5.4328,5.4329,5.4431,5.4432,0,0,0,0,0,0,5.4157,5.4166,5.4238,5.4241,5.4193,5.4228,5.4234,5.4252,5.4279,5.4282,5.4261,5.426,5.4304,5.4308,5.4313,5.4357,5.4327,5.433,5.4331,5.443,5.4431,5.4432,0,0,0,0,0,0,5.4155,5.4164,5.4236,5.4203,5.4212,5.4231,5.4251,5.4253,5.4265,5.4284,5.4287,5.427,5.4303,5.4309,5.4342,5.4358,5.4331,5.4333,5.4429,5.443,5.4432,5.4444,0,0,0,0,0,0,5.4152,5.4163,5.4178,5.4204,5.4214,5.4266,5.4252,5.4255,5.427,5.4269,5.4293,5.4296,5.4303,5.4338,5.4345,5.4361,5.4335,5.4427,5.4429,5.4431,5.4442,5.4446,5.4449,0,0,0,0,0,5.4149,5.4179,5.4179,5.4188,5.4234,5.4267,5.4272,5.4281,5.4272,5.4286,5.4298,5.4295,5.4355,5.4342,5.4349,5.4367,5.4426,5.4429,5.4431,5.4441,5.4445,5.4449,0,0,0,0,0,0,5.4153,5.4182,5.4183,5.4222,5.4242,5.4266,5.4285,5.4285,5.4307,5.4305,5.4313,5.4319,5.4352,5.4362,5.4347,5.4402,5.4389,5.4393,5.4394,5.4399,5.4402,5.4398,5.4338,0,0,0,0,0,5.4159,5.4185,5.4208,5.4241,5.4251,5.4266,5.4281,5.4286,5.4306,5.4314,5.4329,5.4347,5.437,5.4385,5.4407,5.4444,5.4448,5.4459,5.4463,5.4465,5.4469,5.4488,5.4493,5.444,5.444,5.444,0,0,5.4171,5.419,5.4206,5.4242,5.4258,5.4283,5.4273,5.43,5.4319,5.4318,5.435,5.4361,5.4382,5.4417,5.4433,5.4427,5.4484,5.4469,5.4471,5.4472,5.4491,5.4496,5.45,5.4442,5.4442,5.4441,0,0,5.4205,5.4223,5.4252,5.4268,5.4293,5.4303,5.431,5.4334,5.4342,5.4375,5.4374,5.4395,5.4435,5.445,5.4462,5.4502,5.45,5.4509,5.4526,5.4544,5.4548,5.4552,5.4565,5.457,5.4512,5.4512,5.4512,0,5.4217,5.4256,5.4266,5.4294,5.4309,5.4311,5.4339,5.4354,5.4384,5.4394,5.4387,5.4436,5.4451,5.4489,5.4498,5.4509,5.4516,5.4506,5.4547,5.4551,5.4555,5.4567,5.4572,5.4513,5.4513,5.4512,5.4512,0,5.4268,5.4295,5.4315,5.4346,5.4363,5.4391,5.4404,5.442,5.4423,5.4433,5.4466,5.4483,5.4508,5.4518,5.4521,5.4556,5.4551,5.4546,5.4533,5.456,5.4572,5.4577,5.4514,5.4514,5.4513,5.4513,0,0,5.4307,5.4343,5.435,5.4363,5.439,5.4411,5.4437,5.4464,5.4477,5.4497,5.4519,5.4553,5.4548,5.4562,5.4566,5.4583,5.4612,5.4575,5.4576,5.4581,5.465,5.4654,5.466,5.4611,5.4612,5.4613,5.4648,0,5.4344,5.4394,5.4403,5.4445,5.447,5.4471,5.4494,5.4512,5.4522,5.4543,5.4553,5.4577,5.4569,5.4577,5.4594,5.4605,5.4626,5.4603,5.463,5.4631,5.4624,5.4666,5.467,5.4703,5.4653,5.4654,5.4655,0,5.4394,5.4417,5.4462,5.4485,5.4495,5.4516,5.4541,5.4561,5.4581,5.4587,5.4603,5.4605,5.4632,5.4618,5.4653,5.4637,5.4649,5.4656,5.4657,5.466,5.4644,5.4669,5.4714,5.4719,5.4662,5.4662,5.4661,0,5.4417,5.4458,5.4491,5.4502,5.453,5.4545,5.4557,5.4576,5.4591,5.4611,5.4621,5.4644,5.4656,5.4673,5.4681,5.4671,5.4716,5.4703,5.472,5.472,5.4729,5.4729,5.4776,5.4738,5.4738,5.4738,5.4738,0,5.4456,5.4484,5.4501,5.4521,5.4551,5.4561,5.459,5.4602,5.4618,5.4639,5.4642,5.4661,5.467,5.4691,5.4697,5.4725,5.473,5.4735,5.4736,5.4735,5.4734,5.4742,5.474,5.4739,5.4739,5.4738,5.4738,0,5.4487,5.45,5.4536,5.4559,5.4566,5.4587,5.4606,5.4625,5.4634,5.4661,5.4667,5.4682,5.4706,5.4716,5.4745,5.4749,5.4781,5.478,5.4774,5.4775,5.4791,5.4789,5.4845,5.4853,5.481,5.481,5.481,0,5.4512,5.4533,5.4559,5.4574,5.4587,5.461,5.4626,5.4635,5.4651,5.4675,5.469,5.4714,5.4734,5.4772,5.4784,5.4806,5.4806,5.4824,5.4809,5.4807,5.4805,5.4804,5.4806,5.4827,5.4827,5.4827,5.4828,0,5.4554,5.4559,5.4582,5.4607,5.4625,5.4645,5.4664,5.4675,5.4688,5.4705,5.473,5.4746,5.4775,5.4799,5.4821,5.4832,5.4831,5.4832,5.4837,5.4836,5.4831,5.4833,5.4781,5.4831,5.4831,5.483,5.483,5.483,5.4582,5.46,5.4622,5.4646,5.4662,5.468,5.4698,5.471,5.4732,5.4758,5.4762,5.4788,5.4806,5.4837,5.4848,5.4868,5.4863,5.4871,5.4873,5.4874,5.4875,5.4828,5.4872,5.4872,5.4872,5.4872,5.4872,0,5.4623,5.4637,5.466,5.4687,5.4706,5.4705,5.4726,5.4742,5.4766,5.4783,5.4803,5.4831,5.4853,5.4868,5.489,5.4903,5.4903,5.4908,5.4907,5.491,5.4878,5.4871,5.4908,5.4908,5.4908,5.4908,5.4908,5.4908,5.4647,5.4678,5.4686,5.4724,5.4737,5.4764,5.4776,5.4792,5.4806,5.4838,5.4857,5.4866,5.4882,5.4906,5.4926,5.4929,5.4937,5.4942,5.4945,5.4916,5.4912,5.4908,5.4902,5.4944,5.4944,5.4975,5.4975,5.4976]}]]